Time,TemperatureF,DewpointF,PressureIn,WindDirection,WindDirectionDegrees,WindSpeedMPH,WindSpeedGustMPH,Humidity,HourlyPrecipIn,Conditions,Clouds,dailyrainin,SoftwareType,DateUTC
2013-04-24 00:00:00,59.1,45.2,30.13,SSW,207,1.0,9.0,60,0.00,,SKC,0.00,VWS V14.01,2013-04-24 04:00:00,
2013-04-24 00:01:00,59.0,45.6,30.13,SSW,207,1.0,1.0,61,0.00,,SKC,0.00,VWS V14.01,2013-04-24 04:01:00,
2013-04-24 00:06:00,58.9,45.5,30.13,South,190,4.0,7.0,61,0.00,,SKC,0.00,VWS V14.01,2013-04-24 04:06:00,
2013-04-24 00:11:00,58.7,45.3,30.12,SSW,205,2.0,7.0,61,0.00,,SKC,0.00,VWS V14.01,2013-04-24 04:11:00,
2013-04-24 00:16:00,58.6,45.2,30.12,SSW,200,2.0,7.0,61,0.00,,SKC,0.00,VWS V14.01,2013-04-24 04:16:00,
2013-04-24 00:21:00,58.6,45.2,30.12,West,264,2.0,7.0,61,0.00,,SKC,0.00,VWS V14.01,2013-04-24 04:21:00,
2013-04-24 00:26:00,58.5,45.1,30.12,SSW,193,1.0,10.0,61,0.00,,SKC,0.00,VWS V14.01,2013-04-24 04:26:00,
2013-04-24 00:30:00,58.4,45.0,30.12,South,187,3.0,10.0,61,0.00,,SKC,0.00,VWS V14.01,2013-04-24 04:30:00,
2013-04-24 00:31:00,58.5,45.5,30.12,SSW,203,2.0,4.0,62,0.00,,SKC,0.00,VWS V14.01,2013-04-24 04:31:00,
2013-04-24 00:36:00,58.4,45.5,30.12,South,184,3.0,6.0,62,0.00,,SKC,0.00,VWS V14.01,2013-04-24 04:36:00,
2013-04-24 00:41:00,58.3,45.3,30.12,South,177,0.0,6.0,62,0.00,,SKC,0.00,VWS V14.01,2013-04-24 04:41:00,
2013-04-24 00:46:00,58.3,45.3,30.12,South,185,2.0,7.0,62,0.00,,SKC,0.00,VWS V14.01,2013-04-24 04:46:00,
2013-04-24 00:51:00,58.3,45.3,30.12,SSW,194,4.0,7.0,62,0.00,,SKC,0.00,VWS V14.01,2013-04-24 04:51:00,
2013-04-24 00:56:00,58.3,45.3,30.11,SSE,155,1.0,7.0,62,0.00,,SKC,0.00,VWS V14.01,2013-04-24 04:56:00,
2013-04-24 01:00:00,58.2,45.3,30.11,SSW,200,1.0,7.0,62,0.00,,SKC,0.00,VWS V14.01,2013-04-24 05:00:00,
2013-04-24 01:01:00,58.2,45.3,30.11,South,184,2.0,3.0,62,0.00,,SKC,0.00,VWS V14.01,2013-04-24 05:01:00,
2013-04-24 01:06:00,58.0,45.1,30.11,SSE,160,2.0,5.0,62,0.00,,SKC,0.00,VWS V14.01,2013-04-24 05:06:00,
2013-04-24 01:11:00,58.1,45.2,30.11,SSW,197,1.0,7.0,62,0.00,,SKC,0.00,VWS V14.01,2013-04-24 05:11:00,
2013-04-24 01:16:00,58.0,45.1,30.11,South,184,4.0,7.0,62,0.00,,SKC,0.00,VWS V14.01,2013-04-24 05:16:00,
2013-04-24 01:21:00,57.9,45.4,30.11,South,169,2.0,7.0,63,0.00,,SKC,0.00,VWS V14.01,2013-04-24 05:21:00,
2013-04-24 01:26:00,57.8,45.3,30.11,South,183,3.0,7.0,63,0.00,,SKC,0.00,VWS V14.01,2013-04-24 05:26:00,
2013-04-24 01:30:00,57.8,45.3,30.11,SSW,193,2.0,7.0,63,0.00,,SKC,0.00,VWS V14.01,2013-04-24 05:30:00,
2013-04-24 01:31:00,57.8,45.3,30.11,SSW,200,3.0,5.0,63,0.00,,SKC,0.00,VWS V14.01,2013-04-24 05:31:00,
2013-04-24 01:36:00,57.7,45.2,30.11,SSW,197,5.0,5.0,63,0.00,,SKC,0.00,VWS V14.01,2013-04-24 05:36:00,
2013-04-24 01:41:00,57.7,45.6,30.11,South,174,1.0,7.0,64,0.00,,SKC,0.00,VWS V14.01,2013-04-24 05:41:00,
2013-04-24 01:46:00,57.5,45.4,30.11,South,183,4.0,7.0,64,0.00,,SKC,0.00,VWS V14.01,2013-04-24 05:46:00,
2013-04-24 01:51:00,57.5,45.4,30.11,South,174,2.0,7.0,64,0.00,,SKC,0.00,VWS V14.01,2013-04-24 05:51:00,
2013-04-24 01:56:00,57.4,45.3,30.10,South,174,2.0,7.0,64,0.00,,SKC,0.00,VWS V14.01,2013-04-24 05:56:00,
2013-04-24 02:00:00,57.4,45.3,30.11,SW,217,3.0,7.0,64,0.00,,SKC,0.00,VWS V14.01,2013-04-24 06:00:00,
2013-04-24 02:01:00,57.4,45.3,30.11,SSW,207,2.0,4.0,64,0.00,,SKC,0.00,VWS V14.01,2013-04-24 06:01:00,
2013-04-24 02:06:00,57.2,45.2,30.11,SW,217,1.0,4.0,64,0.00,,SKC,0.00,VWS V14.01,2013-04-24 06:06:00,
2013-04-24 02:11:00,57.1,45.5,30.11,South,177,4.0,5.0,65,0.00,,SKC,0.00,VWS V14.01,2013-04-24 06:11:00,
2013-04-24 02:16:00,57.0,45.4,30.11,South,186,2.0,5.0,65,0.00,,SKC,0.00,VWS V14.01,2013-04-24 06:16:00,
2013-04-24 02:21:00,56.8,45.2,30.11,SSW,198,1.0,5.0,65,0.00,,SKC,0.00,VWS V14.01,2013-04-24 06:21:00,
2013-04-24 02:26:00,56.7,45.5,30.11,SSW,192,2.0,6.0,66,0.00,,SKC,0.00,VWS V14.01,2013-04-24 06:26:00,
2013-04-24 02:30:00,56.6,45.4,30.11,SSW,208,2.0,6.0,66,0.00,,SKC,0.00,VWS V14.01,2013-04-24 06:30:00,
2013-04-24 02:31:00,56.5,45.3,30.11,SSW,202,1.0,2.0,66,0.00,,SKC,0.00,VWS V14.01,2013-04-24 06:31:00,
2013-04-24 02:36:00,56.3,45.5,30.11,South,185,2.0,2.0,67,0.00,,SKC,0.00,VWS V14.01,2013-04-24 06:36:00,
2013-04-24 02:41:00,56.2,45.4,30.11,South,191,2.0,6.0,67,0.00,,SKC,0.00,VWS V14.01,2013-04-24 06:41:00,
2013-04-24 02:46:00,56.1,45.3,30.11,South,191,1.0,6.0,67,0.00,,SKC,0.00,VWS V14.01,2013-04-24 06:46:00,
2013-04-24 02:51:00,56.1,45.3,30.11,South,172,1.0,6.0,67,0.00,,SKC,0.00,VWS V14.01,2013-04-24 06:51:00,
2013-04-24 02:56:00,55.8,45.0,30.10,South,170,1.0,6.0,67,0.00,,SKC,0.00,VWS V14.01,2013-04-24 06:56:00,
2013-04-24 03:00:00,55.5,45.1,30.10,South,170,0.0,6.0,68,0.00,,SKC,0.00,VWS V14.01,2013-04-24 07:00:00,
2013-04-24 03:01:00,55.5,45.1,30.10,South,170,0.0,0.0,68,0.00,,SKC,0.00,VWS V14.01,2013-04-24 07:01:00,
2013-04-24 03:06:00,55.1,45.1,30.11,South,169,0.0,2.0,69,0.00,,SKC,0.00,VWS V14.01,2013-04-24 07:06:00,
2013-04-24 03:11:00,54.9,44.9,30.11,South,170,1.0,2.0,69,0.00,,SKC,0.00,VWS V14.01,2013-04-24 07:11:00,
2013-04-24 03:16:00,54.9,44.9,30.11,SSW,207,0.0,2.0,69,0.00,,SKC,0.00,VWS V14.01,2013-04-24 07:16:00,
2013-04-24 03:21:00,54.7,45.1,30.10,SSW,208,1.0,2.0,70,0.00,,SKC,0.00,VWS V14.01,2013-04-24 07:21:00,
2013-04-24 03:26:00,54.3,45.1,30.10,SW,236,1.0,2.0,71,0.00,,SKC,0.00,VWS V14.01,2013-04-24 07:26:00,
2013-04-24 03:30:00,53.8,45.0,30.10,SW,236,0.0,2.0,72,0.00,,SKC,0.00,VWS V14.01,2013-04-24 07:30:00,
2013-04-24 03:31:00,53.7,44.9,30.10,SW,236,1.0,1.0,72,0.00,,SKC,0.00,VWS V14.01,2013-04-24 07:31:00,
2013-04-24 03:36:00,53.3,44.9,30.10,South,181,0.0,2.0,73,0.00,,SKC,0.00,VWS V14.01,2013-04-24 07:36:00,
2013-04-24 03:41:00,53.4,45.0,30.10,SSW,198,1.0,2.0,73,0.00,,SKC,0.00,VWS V14.01,2013-04-24 07:41:00,
2013-04-24 03:46:00,53.6,44.8,30.10,South,187,0.0,2.0,72,0.00,,SKC,0.00,VWS V14.01,2013-04-24 07:46:00,
2013-04-24 03:51:00,53.6,45.2,30.10,South,170,0.0,2.0,73,0.00,,SKC,0.00,VWS V14.01,2013-04-24 07:51:00,
2013-04-24 03:56:00,53.5,45.1,30.10,South,170,0.0,2.0,73,0.00,,SKC,0.00,VWS V14.01,2013-04-24 07:56:00,
2013-04-24 04:00:00,53.4,45.0,30.10,South,170,0.0,2.0,73,0.00,,SKC,0.00,VWS V14.01,2013-04-24 08:00:00,
2013-04-24 04:01:00,53.3,44.9,30.10,South,170,0.0,0.0,73,0.00,,SKC,0.00,VWS V14.01,2013-04-24 08:01:00,
2013-04-24 04:06:00,52.9,44.5,30.10,South,170,0.0,0.0,73,0.00,,SKC,0.00,VWS V14.01,2013-04-24 08:06:00,
2013-04-24 04:11:00,52.4,44.7,30.10,South,170,0.0,0.0,75,0.00,,SKC,0.00,VWS V14.01,2013-04-24 08:11:00,
2013-04-24 04:16:00,52.2,44.9,30.10,South,170,1.0,1.0,76,0.00,,SKC,0.00,VWS V14.01,2013-04-24 08:16:00,
2013-04-24 04:21:00,52.2,44.9,30.10,South,177,0.0,2.0,76,0.00,,SKC,0.00,VWS V14.01,2013-04-24 08:21:00,
2013-04-24 04:26:00,52.8,45.1,30.09,South,173,0.0,2.0,75,0.00,,SKC,0.00,VWS V14.01,2013-04-24 08:26:00,
2013-04-24 04:30:00,52.9,45.2,30.09,South,174,1.0,3.0,75,0.00,,SKC,0.00,VWS V14.01,2013-04-24 08:30:00,
2013-04-24 04:31:00,52.9,45.2,30.09,South,174,1.0,1.0,75,0.00,,SKC,0.00,VWS V14.01,2013-04-24 08:31:00,
2013-04-24 04:36:00,52.6,44.9,30.09,South,174,0.0,1.0,75,0.00,,SKC,0.00,VWS V14.01,2013-04-24 08:36:00,
2013-04-24 04:41:00,52.3,45.0,30.09,South,174,0.0,1.0,76,0.00,,SKC,0.00,VWS V14.01,2013-04-24 08:41:00,
2013-04-24 04:46:00,52.0,44.7,30.10,South,174,0.0,1.0,76,0.00,,SKC,0.00,VWS V14.01,2013-04-24 08:46:00,
2013-04-24 04:51:00,51.4,44.4,30.09,South,175,0.0,1.0,77,0.00,,SKC,0.00,VWS V14.01,2013-04-24 08:51:00,
2013-04-24 04:56:00,50.6,44.0,30.10,South,174,0.0,1.0,78,0.00,,SKC,0.00,VWS V14.01,2013-04-24 08:56:00,
2013-04-24 05:00:00,49.9,44.0,30.10,South,174,0.0,1.0,80,0.00,,SKC,0.00,VWS V14.01,2013-04-24 09:00:00,
2013-04-24 05:01:00,49.9,44.0,30.09,South,174,0.0,0.0,80,0.00,,SKC,0.00,VWS V14.01,2013-04-24 09:01:00,
2013-04-24 05:06:00,49.3,43.7,30.10,South,174,0.0,0.0,81,0.00,,SKC,0.00,VWS V14.01,2013-04-24 09:06:00,
2013-04-24 05:11:00,48.9,43.7,30.10,South,174,0.0,0.0,82,0.00,,SKC,0.00,VWS V14.01,2013-04-24 09:11:00,
2013-04-24 05:16:00,48.7,43.8,30.10,South,174,0.0,0.0,83,0.00,,SKC,0.00,VWS V14.01,2013-04-24 09:16:00,
2013-04-24 05:21:00,48.3,43.4,30.10,South,174,0.0,1.0,83,0.00,,SKC,0.00,VWS V14.01,2013-04-24 09:21:00,
2013-04-24 05:26:00,47.9,43.6,30.09,South,175,1.0,1.0,85,0.00,,SKC,0.00,VWS V14.01,2013-04-24 09:26:00,
2013-04-24 05:30:00,47.8,43.5,30.09,South,174,0.0,1.0,85,0.00,,SKC,0.00,VWS V14.01,2013-04-24 09:30:00,
2013-04-24 05:31:00,47.8,43.5,30.09,South,174,0.0,0.0,85,0.00,,SKC,0.00,VWS V14.01,2013-04-24 09:31:00,
2013-04-24 05:36:00,47.7,43.4,30.09,South,174,0.0,1.0,85,0.00,,SKC,0.00,VWS V14.01,2013-04-24 09:36:00,
2013-04-24 05:41:00,47.9,43.6,30.09,SE,127,0.0,2.0,85,0.00,,SKC,0.00,VWS V14.01,2013-04-24 09:41:00,
2013-04-24 05:46:00,47.6,43.3,30.09,SE,127,0.0,2.0,85,0.00,,SKC,0.00,VWS V14.01,2013-04-24 09:46:00,
2013-04-24 05:51:00,47.0,42.7,30.09,SSW,207,1.0,2.0,85,0.00,,SKC,0.00,VWS V14.01,2013-04-24 09:51:00,
2013-04-24 05:56:00,46.7,43.0,30.09,SSW,207,0.0,2.0,87,0.00,,SKC,0.00,VWS V14.01,2013-04-24 09:56:00,
2013-04-24 06:00:00,46.7,43.0,30.09,SSW,207,0.0,2.0,87,0.00,,SKC,0.00,VWS V14.01,2013-04-24 10:00:00,
2013-04-24 06:01:00,46.7,43.0,30.09,SSW,207,0.0,0.0,87,0.00,,SKC,0.00,VWS V14.01,2013-04-24 10:01:00,
2013-04-24 06:06:00,46.7,43.3,30.09,SSW,207,0.0,0.0,88,0.00,,SKC,0.00,VWS V14.01,2013-04-24 10:06:00,
2013-04-24 06:11:00,46.5,43.1,30.09,SSW,207,0.0,1.0,88,0.00,,SKC,0.00,VWS V14.01,2013-04-24 10:11:00,
2013-04-24 06:16:00,46.4,43.0,30.09,SSW,207,0.0,1.0,88,0.00,,SKC,0.00,VWS V14.01,2013-04-24 10:16:00,
2013-04-24 06:21:00,46.0,42.7,30.09,SSW,207,0.0,1.0,88,0.00,,SKC,0.00,VWS V14.01,2013-04-24 10:21:00,
2013-04-24 06:26:00,45.9,43.1,30.09,SSW,207,0.0,1.0,90,0.00,,SKC,0.00,VWS V14.01,2013-04-24 10:26:00,
2013-04-24 06:30:00,46.0,43.2,30.09,SSW,207,0.0,1.0,90,0.00,,SKC,0.00,VWS V14.01,2013-04-24 10:30:00,
2013-04-24 06:31:00,46.0,43.0,30.09,SSW,207,0.0,0.0,89,0.00,,SKC,0.00,VWS V14.01,2013-04-24 10:31:00,
2013-04-24 06:36:00,45.4,42.1,30.09,SSW,207,0.0,1.0,88,0.00,,SKC,0.00,VWS V14.01,2013-04-24 10:36:00,
2013-04-24 06:41:00,45.6,42.8,30.09,SSW,200,0.0,2.0,90,0.00,,SKC,0.00,VWS V14.01,2013-04-24 10:41:00,
2013-04-24 06:46:00,45.5,42.2,30.10,NNW,342,1.0,2.0,88,0.00,,SKC,0.00,VWS V14.01,2013-04-24 10:46:00,
2013-04-24 06:51:00,44.6,41.6,30.10,NNW,342,1.0,2.0,89,0.00,,SKC,0.00,VWS V14.01,2013-04-24 10:51:00,
2013-04-24 06:56:00,44.7,42.2,30.10,North,5,0.0,2.0,91,0.00,,SKC,0.00,VWS V14.01,2013-04-24 10:56:00,
2013-04-24 07:00:00,44.5,41.5,30.10,North,4,0.0,2.0,89,0.00,,SKC,0.00,VWS V14.01,2013-04-24 11:00:00,
2013-04-24 07:01:00,44.5,41.5,30.10,North,5,0.0,0.0,89,0.00,,SKC,0.00,VWS V14.01,2013-04-24 11:01:00,
2013-04-24 07:06:00,44.2,41.5,30.10,North,6,0.0,0.0,90,0.00,,SKC,0.00,VWS V14.01,2013-04-24 11:06:00,
2013-04-24 07:11:00,44.2,41.5,30.11,NE,37,1.0,1.0,90,0.00,,SKC,0.00,VWS V14.01,2013-04-24 11:11:00,
2013-04-24 07:16:00,44.1,41.7,30.11,NE,37,0.0,1.0,91,0.00,,SKC,0.00,VWS V14.01,2013-04-24 11:16:00,
2013-04-24 07:21:00,44.2,42.0,30.11,NE,37,0.0,1.0,92,0.00,,SKC,0.00,VWS V14.01,2013-04-24 11:21:00,
2013-04-24 07:26:00,44.1,41.7,30.10,NE,37,2.0,2.0,91,0.00,,SKC,0.00,VWS V14.01,2013-04-24 11:26:00,
2013-04-24 07:30:00,43.9,41.5,30.10,South,181,0.0,2.0,91,0.00,,SKC,0.00,VWS V14.01,2013-04-24 11:30:00,
2013-04-24 07:31:00,43.9,41.5,30.10,South,181,0.0,0.0,91,0.00,,SKC,0.00,VWS V14.01,2013-04-24 11:31:00,
2013-04-24 07:36:00,44.3,42.1,30.10,South,174,0.0,3.0,92,0.00,,SKC,0.00,VWS V14.01,2013-04-24 11:36:00,
2013-04-24 07:41:00,44.8,42.9,30.09,South,172,0.0,3.0,93,0.00,,SKC,0.00,VWS V14.01,2013-04-24 11:41:00,
2013-04-24 07:46:00,45.2,42.7,30.09,SSE,168,1.0,3.0,91,0.00,,SKC,0.00,VWS V14.01,2013-04-24 11:46:00,
2013-04-24 07:51:00,45.5,43.0,30.08,SSE,167,1.0,3.0,91,0.00,,SKC,0.00,VWS V14.01,2013-04-24 11:51:00,
2013-04-24 07:56:00,46.1,43.3,30.08,SSE,161,0.0,3.0,90,0.00,,SKC,0.00,VWS V14.01,2013-04-24 11:56:00,
2013-04-24 08:00:00,46.7,43.9,30.08,SSE,160,0.0,3.0,90,0.00,,SKC,0.00,VWS V14.01,2013-04-24 12:00:00,
2013-04-24 08:01:00,46.8,44.0,30.08,SSE,160,0.0,0.0,90,0.00,,SKC,0.00,VWS V14.01,2013-04-24 12:01:00,
2013-04-24 08:06:00,47.3,44.2,30.08,SSE,160,0.0,0.0,89,0.00,,SKC,0.00,VWS V14.01,2013-04-24 12:06:00,
2013-04-24 08:11:00,48.0,44.6,30.07,SSE,161,0.0,0.0,88,0.00,,SKC,0.00,VWS V14.01,2013-04-24 12:11:00,
2013-04-24 08:16:00,48.8,45.1,30.07,SSE,161,1.0,2.0,87,0.00,,SKC,0.00,VWS V14.01,2013-04-24 12:16:00,
2013-04-24 08:21:00,49.5,45.5,30.07,East,84,2.0,2.0,86,0.00,,SKC,0.00,VWS V14.01,2013-04-24 12:21:00,
2013-04-24 08:26:00,50.4,46.1,30.07,NNW,347,0.0,2.0,85,0.00,,SKC,0.00,VWS V14.01,2013-04-24 12:26:00,
2013-04-24 08:30:00,51.2,46.8,30.07,NNW,347,0.0,2.0,85,0.00,,SKC,0.00,VWS V14.01,2013-04-24 12:30:00,
2013-04-24 08:31:00,51.4,47.0,30.07,NNW,347,0.0,1.0,85,0.00,,SKC,0.00,VWS V14.01,2013-04-24 12:31:00,
2013-04-24 08:36:00,52.3,47.3,30.07,NNW,347,0.0,1.0,83,0.00,,SKC,0.00,VWS V14.01,2013-04-24 12:36:00,
2013-04-24 08:41:00,53.6,47.9,30.07,NNW,347,0.0,1.0,81,0.00,,SKC,0.00,VWS V14.01,2013-04-24 12:41:00,
2013-04-24 08:46:00,55.1,48.4,30.07,SW,217,0.0,3.0,78,0.00,,SKC,0.00,VWS V14.01,2013-04-24 12:46:00,
2013-04-24 08:51:00,56.2,48.8,30.07,NW,318,0.0,3.0,76,0.00,,SKC,0.00,VWS V14.01,2013-04-24 12:51:00,
2013-04-24 08:56:00,56.6,48.4,30.07,North,359,1.0,3.0,74,0.00,,SKC,0.00,VWS V14.01,2013-04-24 12:56:00,
2013-04-24 09:00:00,56.9,49.1,30.07,North,359,0.0,3.0,75,0.00,,SKC,0.00,VWS V14.01,2013-04-24 13:00:00,
2013-04-24 09:01:00,57.1,49.3,30.07,SW,218,1.0,2.0,75,0.00,,SKC,0.00,VWS V14.01,2013-04-24 13:01:00,
2013-04-24 09:06:00,58.6,50.0,30.07,North,6,1.0,2.0,73,0.00,,SKC,0.00,VWS V14.01,2013-04-24 13:06:00,
2013-04-24 09:11:00,60.4,50.6,30.07,SW,233,1.0,3.0,70,0.00,,SKC,0.00,VWS V14.01,2013-04-24 13:11:00,
2013-04-24 09:16:00,61.7,49.8,30.07,SSW,208,0.0,5.0,65,0.00,,SKC,0.00,VWS V14.01,2013-04-24 13:16:00,
2013-04-24 09:21:00,62.8,50.5,30.06,SW,221,0.0,5.0,64,0.00,,SKC,0.00,VWS V14.01,2013-04-24 13:21:00,
2013-04-24 09:26:00,63.9,49.8,30.06,WSW,252,0.0,6.0,60,0.00,,SKC,0.00,VWS V14.01,2013-04-24 13:26:00,
2013-04-24 09:30:00,64.2,48.7,30.06,SSE,163,0.0,6.0,57,0.00,,SKC,0.00,VWS V14.01,2013-04-24 13:30:00,
2013-04-24 09:31:00,64.3,48.8,30.06,SSE,165,0.0,0.0,57,0.00,,SKC,0.00,VWS V14.01,2013-04-24 13:31:00,
2013-04-24 09:36:00,64.4,48.4,30.06,SSW,210,3.0,7.0,56,0.00,,SKC,0.00,VWS V14.01,2013-04-24 13:36:00,
2013-04-24 09:41:00,64.7,48.7,30.05,South,176,2.0,7.0,56,0.00,,SKC,0.00,VWS V14.01,2013-04-24 13:41:00,
2013-04-24 09:46:00,65.1,49.0,30.04,South,187,3.0,7.0,56,0.00,,SKC,0.00,VWS V14.01,2013-04-24 13:46:00,
2013-04-24 09:51:00,65.4,49.3,30.03,South,183,3.0,7.0,56,0.00,,SKC,0.00,VWS V14.01,2013-04-24 13:51:00,
2013-04-24 09:56:00,65.3,49.2,30.03,SSW,195,4.0,9.0,56,0.00,,SKC,0.00,VWS V14.01,2013-04-24 13:56:00,
2013-04-24 10:00:00,65.2,49.1,30.03,SE,137,2.0,9.0,56,0.00,,SKC,0.00,VWS V14.01,2013-04-24 14:00:00,
2013-04-24 10:01:00,65.2,49.1,30.02,SSE,148,3.0,7.0,56,0.00,,SKC,0.00,VWS V14.01,2013-04-24 14:01:00,
2013-04-24 10:06:00,64.8,49.2,30.03,SSW,198,5.0,7.0,57,0.00,,SKC,0.00,VWS V14.01,2013-04-24 14:06:00,
2013-04-24 10:11:00,64.6,50.0,30.03,South,172,6.0,7.0,59,0.00,,SKC,0.00,VWS V14.01,2013-04-24 14:11:00,
2013-04-24 10:16:00,64.5,49.4,30.03,SW,225,2.0,7.0,58,0.00,,SKC,0.00,VWS V14.01,2013-04-24 14:16:00,
2013-04-24 10:21:00,64.3,49.2,30.03,South,184,3.0,8.0,58,0.00,,SKC,0.00,VWS V14.01,2013-04-24 14:21:00,
2013-04-24 10:26:00,64.2,49.1,30.03,SSW,210,6.0,11.0,58,0.00,,SKC,0.00,VWS V14.01,2013-04-24 14:26:00,
2013-04-24 10:30:00,64.3,49.2,30.04,SSW,208,3.0,11.0,58,0.00,,SKC,0.00,VWS V14.01,2013-04-24 14:30:00,
2013-04-24 10:31:00,64.3,49.2,30.04,South,188,3.0,5.0,58,0.00,,SKC,0.00,VWS V14.01,2013-04-24 14:31:00,
2013-04-24 10:36:00,64.5,49.9,30.04,SSW,207,2.0,6.0,59,0.00,,SKC,0.00,VWS V14.01,2013-04-24 14:36:00,
2013-04-24 10:41:00,65.0,50.3,30.05,SSE,167,4.0,7.0,59,0.00,,SKC,0.00,VWS V14.01,2013-04-24 14:41:00,
2013-04-24 10:46:00,65.2,50.1,30.04,SW,221,6.0,9.0,58,0.00,,SKC,0.00,VWS V14.01,2013-04-24 14:46:00,
2013-04-24 10:51:00,65.8,50.2,30.04,SSE,165,7.0,9.0,57,0.00,,SKC,0.00,VWS V14.01,2013-04-24 14:51:00,
2013-04-24 10:56:00,66.3,50.6,30.03,SSE,165,2.0,9.0,57,0.00,,SKC,0.00,VWS V14.01,2013-04-24 14:56:00,
2013-04-24 11:00:00,66.6,51.4,30.03,SW,214,5.0,9.0,58,0.00,,SKC,0.00,VWS V14.01,2013-04-24 15:00:00,
2013-04-24 11:01:00,66.7,51.0,30.03,NNW,340,1.0,5.0,57,0.00,,SKC,0.00,VWS V14.01,2013-04-24 15:01:00,
2013-04-24 11:09:00,67.0,50.8,30.02,SSW,195,2.0,13.0,56,0.00,,SKC,0.00,VWS V14.01,2013-04-24 15:09:00,
2013-04-24 11:14:00,67.2,51.0,30.03,SSW,204,0.0,13.0,56,0.00,,SKC,0.00,VWS V14.01,2013-04-24 15:14:00,
2013-04-24 11:19:00,67.3,50.6,30.03,South,180,1.0,13.0,55,0.00,,SKC,0.00,VWS V14.01,2013-04-24 15:19:00,
2013-04-24 11:24:00,67.6,50.4,30.03,SW,218,2.0,13.0,54,0.00,,SKC,0.00,VWS V14.01,2013-04-24 15:24:00,
2013-04-24 11:29:00,67.9,51.6,30.04,SSW,205,3.0,13.0,56,0.00,,SKC,0.00,VWS V14.01,2013-04-24 15:29:00,
2013-04-24 11:30:00,67.9,51.2,30.04,SW,225,2.0,13.0,55,0.00,,SKC,0.00,VWS V14.01,2013-04-24 15:30:00,
2013-04-24 11:34:00,67.9,51.2,30.05,SW,219,4.0,5.0,55,0.00,,SKC,0.00,VWS V14.01,2013-04-24 15:34:00,
2013-04-24 11:39:00,68.1,51.3,30.05,South,172,1.0,5.0,55,0.00,,SKC,0.00,VWS V14.01,2013-04-24 15:39:00,
2013-04-24 11:44:00,68.3,51.0,30.05,South,190,6.0,6.0,54,0.00,,SKC,0.00,VWS V14.01,2013-04-24 15:44:00,
2013-04-24 11:49:00,68.4,51.6,30.06,SSW,210,6.0,6.0,55,0.00,,SKC,0.00,VWS V14.01,2013-04-24 15:49:00,
2013-04-24 11:54:00,68.8,51.5,30.06,SW,229,1.0,6.0,54,0.00,,SKC,0.00,VWS V14.01,2013-04-24 15:54:00,
2013-04-24 11:59:00,69.4,51.5,30.06,SSE,167,3.0,6.0,53,0.00,,SKC,0.00,VWS V14.01,2013-04-24 15:59:00,
2013-04-24 12:00:00,69.5,52.2,30.06,SSE,163,1.0,6.0,54,0.00,,SKC,0.00,VWS V14.01,2013-04-24 16:00:00,
2013-04-24 12:04:00,70.0,52.1,30.06,SSE,162,4.0,4.0,53,0.00,,SKC,0.00,VWS V14.01,2013-04-24 16:04:00,
2013-04-24 12:09:00,70.0,52.6,30.06,WSW,248,2.0,5.0,54,0.00,,SKC,0.00,VWS V14.01,2013-04-24 16:09:00,
2013-04-24 12:14:00,70.2,52.8,30.05,SW,220,0.0,5.0,54,0.00,,SKC,0.00,VWS V14.01,2013-04-24 16:14:00,
2013-04-24 12:19:00,69.6,50.7,30.06,WSW,252,0.0,5.0,51,0.00,,SKC,0.00,VWS V14.01,2013-04-24 16:19:00,
2013-04-24 12:24:00,69.3,50.4,30.06,SW,217,1.0,6.0,51,0.00,,SKC,0.00,VWS V14.01,2013-04-24 16:24:00,
2013-04-24 12:29:00,69.3,50.9,30.05,WSW,237,7.0,11.0,52,0.00,,SKC,0.00,VWS V14.01,2013-04-24 16:29:00,
2013-04-24 12:30:00,69.4,51.0,30.06,South,188,7.0,11.0,52,0.00,,SKC,0.00,VWS V14.01,2013-04-24 16:30:00,
2013-04-24 12:34:00,69.7,51.3,30.05,WSW,239,4.0,7.0,52,0.00,,SKC,0.00,VWS V14.01,2013-04-24 16:34:00,
2013-04-24 12:39:00,70.5,52.6,30.05,WSW,242,6.0,7.0,53,0.00,,SKC,0.00,VWS V14.01,2013-04-24 16:39:00,
2013-04-24 12:44:00,70.7,51.7,30.04,West,267,4.0,14.0,51,0.00,,SKC,0.00,VWS V14.01,2013-04-24 16:44:00,
2013-04-24 12:49:00,70.8,51.3,30.04,WSW,238,8.0,15.0,50,0.00,,SKC,0.00,VWS V14.01,2013-04-24 16:49:00,
2013-04-24 12:54:00,70.3,49.7,30.04,SW,218,5.0,15.0,48,0.00,,SKC,0.00,VWS V14.01,2013-04-24 16:54:00,
2013-04-24 12:59:00,69.7,49.2,30.04,SW,235,5.0,15.0,48,0.00,,SKC,0.00,VWS V14.01,2013-04-24 16:59:00,
2013-04-24 13:00:00,69.6,49.6,30.04,SW,236,6.0,15.0,49,0.00,,SKC,0.00,VWS V14.01,2013-04-24 17:00:00,
2013-04-24 13:04:00,69.4,50.0,30.04,South,180,5.0,11.0,50,0.00,,SKC,0.00,VWS V14.01,2013-04-24 17:04:00,
2013-04-24 13:09:00,69.2,49.8,30.03,SW,231,2.0,11.0,50,0.00,,SKC,0.00,VWS V14.01,2013-04-24 17:09:00,
2013-04-24 13:14:00,69.4,50.5,30.03,WSW,244,2.0,11.0,51,0.00,,SKC,0.00,VWS V14.01,2013-04-24 17:14:00,
2013-04-24 13:19:00,69.6,51.7,30.02,SSW,201,2.0,11.0,53,0.00,,SKC,0.00,VWS V14.01,2013-04-24 17:19:00,
2013-04-24 13:24:00,69.9,51.0,30.02,West,269,3.0,11.0,51,0.00,,SKC,0.00,VWS V14.01,2013-04-24 17:24:00,
2013-04-24 13:29:00,70.3,50.3,30.02,SSW,210,2.0,11.0,49,0.00,,SKC,0.00,VWS V14.01,2013-04-24 17:29:00,
2013-04-24 13:30:00,70.5,51.5,30.02,SW,231,1.0,11.0,51,0.00,,SKC,0.00,VWS V14.01,2013-04-24 17:30:00,
2013-04-24 13:34:00,70.7,51.7,30.03,WSW,250,4.0,6.0,51,0.00,,SKC,0.00,VWS V14.01,2013-04-24 17:34:00,
2013-04-24 13:39:00,70.8,50.7,30.03,WSW,252,5.0,7.0,49,0.00,,SKC,0.00,VWS V14.01,2013-04-24 17:39:00,
2013-04-24 13:44:00,70.8,50.2,30.03,South,188,3.0,7.0,48,0.00,,SKC,0.00,VWS V14.01,2013-04-24 17:44:00,
2013-04-24 13:49:00,70.8,49.6,30.03,SW,215,4.0,7.0,47,0.00,,SKC,0.00,VWS V14.01,2013-04-24 17:49:00,
2013-04-24 13:54:00,71.0,50.9,30.02,WSW,257,3.0,7.0,49,0.00,,SKC,0.00,VWS V14.01,2013-04-24 17:54:00,
2013-04-24 13:59:00,71.4,50.1,30.02,SSE,167,3.0,7.0,47,0.00,,SKC,0.00,VWS V14.01,2013-04-24 17:59:00,
2013-04-24 14:00:00,71.6,50.3,30.02,SSW,207,1.0,7.0,47,0.00,,SKC,0.00,VWS V14.01,2013-04-24 18:00:00,
2013-04-24 14:04:00,71.4,49.6,30.02,SSW,192,6.0,7.0,46,0.00,,SKC,0.00,VWS V14.01,2013-04-24 18:04:00,
2013-04-24 14:09:00,71.3,48.9,30.02,South,179,6.0,10.0,45,0.00,,SKC,0.00,VWS V14.01,2013-04-24 18:09:00,
2013-04-24 14:14:00,71.4,50.7,30.02,SW,235,2.0,10.0,48,0.00,,SKC,0.00,VWS V14.01,2013-04-24 18:14:00,
2013-04-24 14:19:00,71.4,49.6,30.02,SW,232,2.0,10.0,46,0.00,,SKC,0.00,VWS V14.01,2013-04-24 18:19:00,
2013-04-24 14:24:00,71.6,50.9,30.01,SW,215,1.0,10.0,48,0.00,,SKC,0.00,VWS V14.01,2013-04-24 18:24:00,
2013-04-24 14:29:00,72.1,49.6,30.02,SSW,211,3.0,10.0,45,0.00,,SKC,0.00,VWS V14.01,2013-04-24 18:29:00,
2013-04-24 14:30:00,72.2,50.3,30.02,SW,218,2.0,10.0,46,0.00,,SKC,0.00,VWS V14.01,2013-04-24 18:30:00,
2013-04-24 14:34:00,72.2,50.3,30.01,SW,218,2.0,8.0,46,0.00,,SKC,0.00,VWS V14.01,2013-04-24 18:34:00,
2013-04-24 14:39:00,72.6,50.1,30.00,South,191,4.0,8.0,45,0.00,,SKC,0.00,VWS V14.01,2013-04-24 18:39:00,
2013-04-24 14:44:00,73.1,51.7,30.00,SE,136,1.0,8.0,47,0.00,,SKC,0.00,VWS V14.01,2013-04-24 18:44:00,
2013-04-24 14:49:00,73.2,52.4,30.00,ESE,105,3.0,8.0,48,0.00,,SKC,0.00,VWS V14.01,2013-04-24 18:49:00,
2013-04-24 14:54:00,73.3,53.0,29.99,South,179,2.0,8.0,49,0.00,,SKC,0.00,VWS V14.01,2013-04-24 18:54:00,
2013-04-24 14:59:00,73.1,52.3,29.99,SW,214,4.0,8.0,48,0.00,,SKC,0.00,VWS V14.01,2013-04-24 18:59:00,
2013-04-24 15:00:00,73.0,53.3,29.99,SSW,210,2.0,8.0,50,0.00,,SKC,0.00,VWS V14.01,2013-04-24 19:00:00,
2013-04-24 15:04:00,72.6,52.9,30.00,SW,231,2.0,7.0,50,0.00,,SKC,0.00,VWS V14.01,2013-04-24 19:04:00,
2013-04-24 15:09:00,72.0,51.3,30.00,SSE,167,4.0,7.0,48,0.00,,SKC,0.00,VWS V14.01,2013-04-24 19:09:00,
2013-04-24 15:14:00,72.0,52.4,30.00,South,187,0.0,7.0,50,0.00,,SKC,0.00,VWS V14.01,2013-04-24 19:14:00,
2013-04-24 15:19:00,71.6,52.5,30.00,SSW,207,2.0,7.0,51,0.00,,SKC,0.00,VWS V14.01,2013-04-24 19:19:00,
2013-04-24 15:24:00,71.1,52.6,29.99,South,170,1.0,7.0,52,0.00,,SKC,0.00,VWS V14.01,2013-04-24 19:24:00,
2013-04-24 15:29:00,71.3,53.3,29.99,South,173,4.0,7.0,53,0.00,,SKC,0.00,VWS V14.01,2013-04-24 19:29:00,
2013-04-24 15:30:00,71.3,52.8,29.99,South,191,2.0,7.0,52,0.00,,SKC,0.00,VWS V14.01,2013-04-24 19:30:00,
2013-04-24 15:34:00,71.5,51.9,29.98,ESE,113,3.0,4.0,50,0.00,,SKC,0.00,VWS V14.01,2013-04-24 19:34:00,
2013-04-24 15:39:00,71.8,53.2,29.98,South,174,1.0,4.0,52,0.00,,SKC,0.00,VWS V14.01,2013-04-24 19:39:00,
2013-04-24 15:44:00,71.9,53.9,29.98,SW,219,3.0,4.0,53,0.00,,SKC,0.00,VWS V14.01,2013-04-24 19:44:00,
2013-04-24 15:49:00,72.0,54.5,29.97,SE,146,0.0,4.0,54,0.00,,SKC,0.00,VWS V14.01,2013-04-24 19:49:00,
2013-04-24 15:54:00,72.0,53.4,29.98,SW,221,2.0,7.0,52,0.00,,SKC,0.00,VWS V14.01,2013-04-24 19:54:00,
2013-04-24 15:59:00,71.9,52.8,29.97,SSE,167,1.0,7.0,51,0.00,,SKC,0.00,VWS V14.01,2013-04-24 19:59:00,
2013-04-24 16:00:00,71.9,53.3,29.97,WNW,289,2.0,7.0,52,0.00,,SKC,0.00,VWS V14.01,2013-04-24 20:00:00,
2013-04-24 16:04:00,71.7,52.1,29.97,WSW,243,2.0,4.0,50,0.00,,SKC,0.00,VWS V14.01,2013-04-24 20:04:00,
2013-04-24 16:09:00,71.5,51.4,29.97,South,177,3.0,6.0,49,0.00,,SKC,0.00,VWS V14.01,2013-04-24 20:09:00,
2013-04-24 16:14:00,71.1,51.5,29.97,SSW,193,4.0,11.0,50,0.00,,SKC,0.00,VWS V14.01,2013-04-24 20:14:00,
2013-04-24 16:19:00,70.8,51.3,29.98,SW,221,5.0,11.0,50,0.00,,SKC,0.00,VWS V14.01,2013-04-24 20:19:00,
2013-04-24 16:24:00,70.5,51.5,29.98,SW,219,4.0,11.0,51,0.00,,SKC,0.00,VWS V14.01,2013-04-24 20:24:00,
2013-04-24 16:29:00,70.2,51.8,29.98,WNW,293,2.0,11.0,52,0.00,,SKC,0.00,VWS V14.01,2013-04-24 20:29:00,
2013-04-24 16:30:00,70.2,51.8,29.98,NNW,328,1.0,11.0,52,0.00,,SKC,0.00,VWS V14.01,2013-04-24 20:30:00,
2013-04-24 16:34:00,69.7,53.3,29.99,NNW,338,5.0,14.0,56,0.00,,SKC,0.00,VWS V14.01,2013-04-24 20:34:00,
2013-04-24 16:39:00,67.9,54.0,29.99,WNW,291,3.0,14.0,61,0.00,,SKC,0.00,VWS V14.01,2013-04-24 20:39:00,
2013-04-24 16:44:00,66.6,54.9,29.99,NW,322,4.0,14.0,66,0.00,,SKC,0.00,VWS V14.01,2013-04-24 20:44:00,
2013-04-24 16:49:00,65.6,54.8,30.00,NW,326,2.0,14.0,68,0.00,,SKC,0.00,VWS V14.01,2013-04-24 20:49:00,
2013-04-24 16:54:00,65.0,55.4,30.01,SE,128,1.0,14.0,71,0.01,,SKC,0.01,VWS V14.01,2013-04-24 20:54:00,
2013-04-24 16:59:00,64.1,56.0,30.02,WSW,248,2.0,14.0,75,0.02,,SKC,0.02,VWS V14.01,2013-04-24 20:59:00,
2013-04-24 17:00:00,63.8,56.8,30.02,West,269,2.0,14.0,78,0.03,,SKC,0.03,VWS V14.01,2013-04-24 21:00:00,
2013-04-24 17:04:00,63.1,56.8,30.01,NNE,27,0.0,2.0,80,0.04,,SKC,0.04,VWS V14.01,2013-04-24 21:04:00,
2013-04-24 17:09:00,62.5,57.9,30.01,NNE,27,0.0,2.0,85,0.04,,SKC,0.04,VWS V14.01,2013-04-24 21:09:00,
2013-04-24 17:14:00,62.1,57.9,30.01,SE,142,0.0,2.0,86,0.04,,SKC,0.04,VWS V14.01,2013-04-24 21:14:00,
2013-04-24 17:19:00,61.8,57.9,30.02,SE,142,0.0,2.0,87,0.05,,SKC,0.05,VWS V14.01,2013-04-24 21:19:00,
2013-04-24 17:24:00,61.7,58.1,30.01,SE,142,0.0,2.0,88,0.06,,SKC,0.06,VWS V14.01,2013-04-24 21:24:00,
2013-04-24 17:29:00,61.6,58.3,30.02,SE,142,0.0,2.0,89,0.07,,SKC,0.07,VWS V14.01,2013-04-24 21:29:00,
2013-04-24 17:30:00,61.6,58.6,30.02,SW,222,1.0,2.0,90,0.07,,SKC,0.07,VWS V14.01,2013-04-24 21:30:00,
2013-04-24 17:34:00,61.5,58.5,30.01,SW,224,2.0,2.0,90,0.08,,SKC,0.08,VWS V14.01,2013-04-24 21:34:00,
2013-04-24 17:39:00,61.4,58.8,30.00,WNW,295,0.0,2.0,91,0.08,,SKC,0.08,VWS V14.01,2013-04-24 21:39:00,
2013-04-24 17:44:00,61.2,58.6,29.99,NW,321,1.0,2.0,91,0.08,,SKC,0.08,VWS V14.01,2013-04-24 21:44:00,
2013-04-24 17:49:00,61.0,58.4,29.99,ENE,77,0.0,3.0,91,0.08,,SKC,0.08,VWS V14.01,2013-04-24 21:49:00,
2013-04-24 17:54:00,61.0,58.4,29.99,ENE,78,0.0,3.0,91,0.08,,SKC,0.08,VWS V14.01,2013-04-24 21:54:00,
2013-04-24 17:59:00,61.1,58.5,30.00,South,191,1.0,3.0,91,0.08,,SKC,0.08,VWS V14.01,2013-04-24 21:59:00,
2013-04-24 18:00:00,61.2,58.2,30.00,SW,219,1.0,3.0,90,0.08,,SKC,0.08,VWS V14.01,2013-04-24 22:00:00,
2013-04-24 18:04:00,61.2,58.2,30.00,South,184,2.0,4.0,90,0.05,,SKC,0.08,VWS V14.01,2013-04-24 22:04:00,
2013-04-24 18:09:00,61.3,58.3,30.00,South,174,2.0,4.0,90,0.05,,SKC,0.08,VWS V14.01,2013-04-24 22:09:00,
2013-04-24 18:14:00,61.5,58.5,30.00,SE,131,1.0,4.0,90,0.05,,SKC,0.08,VWS V14.01,2013-04-24 22:14:00,
2013-04-24 18:19:00,61.6,58.3,30.01,SW,215,1.0,4.0,89,0.05,,SKC,0.08,VWS V14.01,2013-04-24 22:19:00,
2013-04-24 18:24:00,61.8,58.8,30.01,SSW,208,0.0,4.0,90,0.05,,SKC,0.08,VWS V14.01,2013-04-24 22:24:00,
2013-04-24 18:29:00,62.0,58.7,30.01,SW,214,1.0,4.0,89,0.05,,SKC,0.08,VWS V14.01,2013-04-24 22:29:00,
2013-04-24 18:30:00,62.1,58.8,30.01,SW,214,1.0,4.0,89,0.05,,SKC,0.08,VWS V14.01,2013-04-24 22:30:00,
2013-04-24 18:34:00,62.2,58.9,30.01,SW,214,0.0,1.0,89,0.01,,SKC,0.08,VWS V14.01,2013-04-24 22:34:00,
2013-04-24 18:39:00,62.2,58.9,30.02,SSW,208,1.0,2.0,89,0.01,,SKC,0.08,VWS V14.01,2013-04-24 22:39:00,
2013-04-24 18:44:00,62.2,58.6,30.02,SSW,208,0.0,2.0,88,0.01,,SKC,0.08,VWS V14.01,2013-04-24 22:44:00,
2013-04-24 18:49:00,62.2,58.9,30.02,SSW,208,0.0,2.0,89,0.01,,SKC,0.08,VWS V14.01,2013-04-24 22:49:00,
2013-04-24 18:54:00,62.0,58.7,30.02,SSW,207,0.0,2.0,89,0.01,,SKC,0.08,VWS V14.01,2013-04-24 22:54:00,
2013-04-24 18:59:00,61.8,58.5,30.02,SSW,207,0.0,2.0,89,0.01,,SKC,0.08,VWS V14.01,2013-04-24 22:59:00,
2013-04-24 19:00:00,61.7,58.4,30.02,SSW,208,0.0,2.0,89,0.01,,SKC,0.08,VWS V14.01,2013-04-24 23:00:00,
2013-04-24 19:04:00,61.6,58.0,30.02,SSW,207,0.0,1.0,88,0.00,,SKC,0.08,VWS V14.01,2013-04-24 23:04:00,
2013-04-24 19:09:00,61.6,57.7,30.02,SSW,205,0.0,2.0,87,0.00,,SKC,0.08,VWS V14.01,2013-04-24 23:09:00,
2013-04-24 19:14:00,62.3,58.4,30.01,SSW,206,2.0,2.0,87,0.00,,SKC,0.08,VWS V14.01,2013-04-24 23:14:00,
2013-04-24 19:19:00,63.5,59.6,30.00,SSW,204,0.0,4.0,87,0.00,,SKC,0.08,VWS V14.01,2013-04-24 23:19:00,
2013-04-24 19:24:00,64.1,58.2,30.00,South,191,3.0,4.0,81,0.00,,SKC,0.08,VWS V14.01,2013-04-24 23:24:00,
2013-04-24 19:29:00,64.2,57.6,30.01,SSW,192,2.0,4.0,79,0.00,,SKC,0.08,VWS V14.01,2013-04-24 23:29:00,
2013-04-24 19:30:00,64.1,57.5,30.01,South,186,1.0,4.0,79,0.00,,SKC,0.08,VWS V14.01,2013-04-24 23:30:00,
2013-04-24 19:34:00,63.8,57.5,30.01,South,186,0.0,2.0,80,0.00,,SKC,0.08,VWS V14.01,2013-04-24 23:34:00,
2013-04-24 19:39:00,63.5,57.6,30.00,South,186,0.0,2.0,81,0.00,,SKC,0.08,VWS V14.01,2013-04-24 23:39:00,
2013-04-24 19:44:00,63.2,57.3,30.00,SSW,201,1.0,2.0,81,0.00,,SKC,0.08,VWS V14.01,2013-04-24 23:44:00,
2013-04-24 19:49:00,62.9,56.6,30.00,SSE,149,3.0,4.0,80,0.00,,SKC,0.08,VWS V14.01,2013-04-24 23:49:00,
2013-04-24 19:54:00,62.6,56.3,30.00,SSW,200,1.0,4.0,80,0.00,,SKC,0.08,VWS V14.01,2013-04-24 23:54:00,
2013-04-24 19:59:00,62.3,56.1,30.00,South,174,1.0,4.0,80,0.00,,SKC,0.08,VWS V14.01,2013-04-24 23:59:00,
2013-04-24 20:00:00,62.2,56.0,30.00,South,190,1.0,4.0,80,0.00,,SKC,0.08,VWS V14.01,2013-04-25 00:00:00,
2013-04-24 20:04:00,62.1,56.2,30.01,SSW,207,2.0,2.0,81,0.00,,SKC,0.08,VWS V14.01,2013-04-25 00:04:00,
2013-04-24 20:09:00,61.8,55.9,30.00,South,184,0.0,2.0,81,0.00,,SKC,0.08,VWS V14.01,2013-04-25 00:09:00,
2013-04-24 20:14:00,61.6,55.7,30.00,SSW,193,1.0,3.0,81,0.00,,SKC,0.08,VWS V14.01,2013-04-25 00:14:00,
2013-04-24 20:19:00,61.4,55.9,30.01,SSW,203,2.0,3.0,82,0.00,,SKC,0.08,VWS V14.01,2013-04-25 00:19:00,
2013-04-24 20:24:00,61.1,55.9,30.01,South,172,3.0,3.0,83,0.00,,SKC,0.08,VWS V14.01,2013-04-25 00:24:00,
2013-04-24 20:29:00,61.2,55.7,30.01,South,190,2.0,4.0,82,0.00,,SKC,0.08,VWS V14.01,2013-04-25 00:29:00,
2013-04-24 20:30:00,61.2,55.7,30.01,SSW,194,3.0,4.0,82,0.00,,SKC,0.08,VWS V14.01,2013-04-25 00:30:00,
2013-04-24 20:34:00,61.3,55.4,30.01,SSW,210,2.0,3.0,81,0.00,,SKC,0.08,VWS V14.01,2013-04-25 00:34:00,
2013-04-24 20:39:00,61.4,55.5,30.01,SW,219,1.0,3.0,81,0.00,,SKC,0.08,VWS V14.01,2013-04-25 00:39:00,
2013-04-24 20:44:00,61.4,55.2,30.02,SW,214,0.0,3.0,80,0.00,,SKC,0.08,VWS V14.01,2013-04-25 00:44:00,
2013-04-24 20:49:00,60.8,55.9,30.02,NNW,341,1.0,3.0,84,0.00,,SKC,0.08,VWS V14.01,2013-04-25 00:49:00,
2013-04-24 20:54:00,60.1,55.3,30.03,NNW,341,1.0,3.0,84,0.00,,SKC,0.08,VWS V14.01,2013-04-25 00:54:00,
2013-04-24 20:59:00,60.1,55.6,30.04,NNE,25,8.0,9.0,85,0.00,,SKC,0.08,VWS V14.01,2013-04-25 00:59:00,
2013-04-24 21:00:00,60.1,55.9,30.04,NNW,347,2.0,11.0,86,0.00,,SKC,0.08,VWS V14.01,2013-04-25 01:00:00,
2013-04-24 21:04:00,59.6,55.4,30.05,North,349,2.0,11.0,86,0.00,,SKC,0.08,VWS V14.01,2013-04-25 01:04:00,
2013-04-24 21:09:00,57.9,53.7,30.05,North,359,9.0,18.0,86,0.00,,SKC,0.08,VWS V14.01,2013-04-25 01:09:00,
2013-04-24 21:14:00,56.2,52.7,30.06,NNW,332,8.0,18.0,88,0.00,,SKC,0.08,VWS V14.01,2013-04-25 01:14:00,
2013-04-24 21:19:00,55.2,52.0,30.06,NNW,347,8.0,24.0,89,0.00,,SKC,0.08,VWS V14.01,2013-04-25 01:19:00,
2013-04-24 21:24:00,54.4,51.5,30.06,NNW,335,5.0,24.0,90,0.00,,SKC,0.08,VWS V14.01,2013-04-25 01:24:00,
2013-04-24 21:29:00,53.8,50.9,30.07,NNW,345,10.0,24.0,90,0.00,,SKC,0.08,VWS V14.01,2013-04-25 01:29:00,
2013-04-24 21:30:00,53.6,51.0,30.07,North,8,7.0,24.0,91,0.00,,SKC,0.08,VWS V14.01,2013-04-25 01:30:00,
2013-04-24 21:34:00,53.4,50.8,30.08,NE,49,9.0,13.0,91,0.00,,SKC,0.08,VWS V14.01,2013-04-25 01:34:00,
2013-04-24 21:39:00,53.3,50.7,30.08,NNW,328,8.0,14.0,91,0.00,,SKC,0.08,VWS V14.01,2013-04-25 01:39:00,
2013-04-24 21:44:00,53.2,50.3,30.08,North,353,13.0,17.0,90,0.00,,SKC,0.08,VWS V14.01,2013-04-25 01:44:00,
2013-04-24 21:49:00,53.0,50.2,30.08,North,352,5.0,17.0,90,0.00,,SKC,0.08,VWS V14.01,2013-04-25 01:49:00,
2013-04-24 21:54:00,52.9,50.0,30.09,NE,40,9.0,17.0,90,0.00,,SKC,0.08,VWS V14.01,2013-04-25 01:54:00,
2013-04-24 21:59:00,52.7,49.5,30.09,NNW,345,5.0,17.0,89,0.00,,SKC,0.08,VWS V14.01,2013-04-25 01:59:00,
2013-04-24 22:00:00,52.7,49.6,30.09,NNW,342,6.0,17.0,89,0.00,,SKC,0.08,VWS V14.01,2013-04-25 02:00:00,
2013-04-24 22:04:00,52.5,49.4,30.09,North,350,9.0,16.0,89,0.00,,SKC,0.08,VWS V14.01,2013-04-25 02:04:00,
2013-04-24 22:09:00,52.4,49.6,30.09,NNE,19,7.0,16.0,90,0.00,,SKC,0.08,VWS V14.01,2013-04-25 02:09:00,
2013-04-24 22:14:00,52.3,49.5,30.10,NW,317,5.0,16.0,90,0.00,,SKC,0.08,VWS V14.01,2013-04-25 02:14:00,
2013-04-24 22:19:00,52.2,49.4,30.10,NNW,342,6.0,16.0,90,0.00,,SKC,0.08,VWS V14.01,2013-04-25 02:19:00,
2013-04-24 22:24:00,52.1,49.0,30.11,North,354,13.0,18.0,89,0.00,,SKC,0.08,VWS V14.01,2013-04-25 02:24:00,
2013-04-24 22:29:00,51.8,48.4,30.11,NNW,347,11.0,18.0,88,0.00,,SKC,0.08,VWS V14.01,2013-04-25 02:29:00,
2013-04-24 22:30:00,51.7,48.0,30.11,North,8,9.0,18.0,87,0.00,,SKC,0.08,VWS V14.01,2013-04-25 02:30:00,
2013-04-24 22:34:00,51.4,47.7,30.12,NNE,31,9.0,18.0,87,0.00,,SKC,0.08,VWS V14.01,2013-04-25 02:34:00,
2013-04-24 22:39:00,51.0,47.0,30.12,NNW,343,13.0,19.0,86,0.00,,SKC,0.08,VWS V14.01,2013-04-25 02:39:00,
2013-04-24 22:44:00,50.7,46.7,30.12,North,360,10.0,19.0,86,0.00,,SKC,0.08,VWS V14.01,2013-04-25 02:44:00,
2013-04-24 22:49:00,50.5,46.8,30.12,North,11,4.0,19.0,87,0.00,,SKC,0.08,VWS V14.01,2013-04-25 02:49:00,
2013-04-24 22:54:00,50.4,46.7,30.12,NE,51,10.0,19.0,87,0.00,,SKC,0.08,VWS V14.01,2013-04-25 02:54:00,
2013-04-24 22:59:00,50.2,46.5,30.13,NE,34,13.0,19.0,87,0.00,,SKC,0.08,VWS V14.01,2013-04-25 02:59:00,
2013-04-24 23:00:00,50.2,46.5,30.13,NNW,333,6.0,19.0,87,0.00,,SKC,0.08,VWS V14.01,2013-04-25 03:00:00,
2013-04-24 23:04:00,50.1,46.7,30.13,NNW,339,5.0,10.0,88,0.00,,SKC,0.08,VWS V14.01,2013-04-25 03:04:00,
2013-04-24 23:09:00,49.8,46.4,30.13,North,353,12.0,18.0,88,0.00,,SKC,0.08,VWS V14.01,2013-04-25 03:09:00,
2013-04-24 23:14:00,49.5,46.1,30.13,NNW,335,8.0,18.0,88,0.00,,SKC,0.08,VWS V14.01,2013-04-25 03:14:00,
2013-04-24 23:19:00,49.3,45.9,30.13,NNW,327,6.0,18.0,88,0.00,,SKC,0.08,VWS V14.01,2013-04-25 03:19:00,
2013-04-24 23:24:00,49.1,45.7,30.14,North,356,5.0,18.0,88,0.00,,SKC,0.08,VWS V14.01,2013-04-25 03:24:00,
2013-04-24 23:29:00,49.0,45.9,30.14,NW,317,6.0,18.0,89,0.00,,SKC,0.08,VWS V14.01,2013-04-25 03:29:00,
2013-04-24 23:30:00,49.0,45.6,30.14,NE,42,6.0,18.0,88,0.00,,SKC,0.08,VWS V14.01,2013-04-25 03:30:00,
2013-04-24 23:34:00,49.0,45.6,30.14,NNW,329,5.0,15.0,88,0.00,,SKC,0.08,VWS V14.01,2013-04-25 03:34:00,
2013-04-24 23:39:00,48.9,45.5,30.14,NNW,335,5.0,15.0,88,0.00,,SKC,0.08,VWS V14.01,2013-04-25 03:39:00,
2013-04-24 23:44:00,48.8,45.4,30.14,North,8,6.0,15.0,88,0.00,,SKC,0.08,VWS V14.01,2013-04-25 03:44:00,
2013-04-24 23:49:00,48.7,45.3,30.15,NW,326,3.0,15.0,88,0.00,,SKC,0.08,VWS V14.01,2013-04-25 03:49:00,
2013-04-24 23:54:00,48.5,45.1,30.15,NE,51,2.0,15.0,88,0.00,,SKC,0.08,VWS V14.01,2013-04-25 03:54:00,
2013-04-24 23:59:00,48.4,45.0,30.14,NNW,328,5.0,15.0,88,0.00,,SKC,0.08,VWS V14.01,2013-04-25 03:59:00,